Weather History for Sheridan, WY

Change the Weather History Date:

Tuesday, October 9, 2012

  Actual Average Record
Temperature  
Mean Temperature 44 °F 48 °F  
Max Temperature 55 °F 63 °F 87 °F (2003)
Min Temperature 33 °F 33 °F 5 °F (2009)
Degree Days  
Heating Degree Days 21 17  
Month to date heating degree days 181 140  
Since 1 July heating degree days 331 443  
Cooling Degree Days 0 0  
Month to date cooling degree days 0 0  
Year to date cooling degree days 664 418  
Moisture  
Dew Point 31 °F    
Average Humidity 66    
Maximum Humidity 100    
Minimum Humidity 32    
Precipitation  
Precipitation 0.01 in 0.05 in 0.77 in (1977)
Month to date precipitation 0.49 0.50  
Year to date precipitation 7.48 11.98  
Sea Level Pressure  
Sea Level Pressure 30.12 in    
Wind  
Wind Speed 7 mph (NW)    
Max Wind Speed 18 mph    
Max Gust Speed 24 mph    
Visibility 10 miles    
Events Rain , Snow    
T = Trace of Precipitation, MM = Missing Value Source: NWS Daily Summary

Daily Weather History Graph

Daily Weather History Graph

Search for Another Location

Airport:

Trip Planner

Search our weather history database for the weather conditions in past years. The results will help you decide how hot, cold, wet, or windy it might be!

Date:

Astronomy

Oct. 09, 2012 Rise Set
Actual Time 7:16 AM MDT 6:32 PM MDT
Civil Twilight 6:47 AM MDT 7:02 PM MDT
Nautical Twilight 6:13 AM MDT 7:35 PM MDT
Astronomical Twilight 5:39 AM MDT 8:09 PM MDT
Moon 12:41 AM MDT (10/9) 3:15 PM MDT (10/9)
Length of Visible Light 12h 14m
Length of Day
11h 16m
Last Quarter, 36% of the Moon is Illuminated
Oct 9
Last Quarter
Oct 15
New
Oct 21
First Quarter
Oct 29
Full
Nov 6
Last Quarter

Hourly Weather History & Observations

Time (MDT) Temp. Windchill Dew Point Humidity Pressure Visibility Wind Dir Wind Speed Gust Speed Precip Events Conditions
12:03 AM 37.4 °F 30.3 °F 35.6 °F 93% 30.05 in 10.0 mi NNW 10.4 mph - N/A   Overcast
12:41 AM 37.4 °F 29.3 °F 35.6 °F 93% 30.04 in 10.0 mi NW 12.7 mph - N/A   Overcast
12:53 AM 37.9 °F 29.6 °F 36.0 °F 93% 30.06 in 10.0 mi NW 13.8 mph - N/A   Overcast
1:08 AM 37.4 °F 27.5 °F 35.6 °F 93% 30.04 in 10.0 mi NW 18.4 mph - N/A   Overcast
1:53 AM 37.4 °F 29.8 °F 35.6 °F 93% 30.06 in 10.0 mi WNW 11.5 mph - N/A   Overcast
2:53 AM 36.0 °F 27.1 °F 35.1 °F 97% 30.09 in 10.0 mi NW 13.8 mph - 0.01 in Rain Light Rain
3:53 AM 35.1 °F 26.9 °F 34.0 °F 96% 30.11 in 9.0 mi NW 11.5 mph - 0.00 in Snow Light Snow
4:53 AM 35.1 °F 26.9 °F 33.1 °F 92% 30.12 in 10.0 mi WNW 11.5 mph - 0.00 in   Overcast
5:11 AM 35.6 °F 29.2 °F 33.8 °F 93% 30.08 in 10.0 mi WNW 8.1 mph - N/A   Overcast
5:53 AM 35.1 °F - 33.1 °F 92% 30.13 in 10.0 mi Calm Calm - N/A   Overcast
6:53 AM 35.1 °F - 33.1 °F 92% 30.13 in 10.0 mi Calm Calm - N/A   Overcast
7:53 AM 36.0 °F - 34.0 °F 93% 30.15 in 10.0 mi Calm Calm - N/A   Overcast
8:53 AM 37.0 °F - 32.0 °F 82% 30.16 in 10.0 mi Calm Calm - N/A   Overcast
9:53 AM 39.0 °F 35.7 °F 34.0 °F 82% 30.18 in 10.0 mi NNE 4.6 mph - N/A   Overcast
10:53 AM 41.0 °F - 33.1 °F 73% 30.20 in 10.0 mi Calm Calm - N/A   Overcast
11:53 AM 45.0 °F 40.1 °F 30.9 °F 58% 30.17 in 10.0 mi NW 9.2 mph - N/A   Overcast
12:53 PM 50.0 °F - 28.9 °F 44% 30.14 in 10.0 mi NNW 11.5 mph 19.6 mph N/A   Overcast
1:53 PM 51.1 °F - 28.9 °F 43% 30.12 in 10.0 mi NW 11.5 mph - N/A   Partly Cloudy
2:53 PM 52.0 °F - 27.0 °F 38% 30.11 in 10.0 mi NW 10.4 mph - N/A   Clear
3:53 PM 54.0 °F - 25.0 °F 33% 30.09 in 10.0 mi NW 12.7 mph - N/A   Clear
4:53 PM 53.1 °F - 26.1 °F 35% 30.10 in 10.0 mi NNW 11.5 mph - N/A   Clear
5:53 PM 50.0 °F - 28.9 °F 44% 30.12 in 10.0 mi NW 8.1 mph - N/A   Clear
6:53 PM 39.9 °F 35.8 °F 30.9 °F 70% 30.15 in 10.0 mi West 5.8 mph - N/A   Clear
7:53 PM 37.9 °F 32.7 °F 30.9 °F 76% 30.16 in 10.0 mi South 6.9 mph - N/A   Clear
8:53 PM 37.0 °F - 30.0 °F 76% 30.16 in 10.0 mi Calm Calm - N/A   Clear
9:53 PM 34.0 °F 29.8 °F 28.9 °F 82% 30.16 in 10.0 mi South 4.6 mph - N/A   Clear
10:53 PM 37.0 °F 33.3 °F 28.0 °F 70% 30.15 in 10.0 mi WSW 4.6 mph - N/A   Clear
11:53 PM 36.0 °F 32.1 °F 28.0 °F 73% 30.13 in 10.0 mi South 4.6 mph - N/A   Clear